• în România
  • Lista ţărilor
  • Pe 7 zile
  • Temperatura apei
  • Hartă satelitară
  • Meteo pe hartă
  • Widget-uri
  • user-avatar
    Intrare

    Meteo pe oră la Canillo

    Astăzi, 22 Februarie, Joi

    Timp Temperatura Precipitaţii Vânt Presiune Umiditate
    00:00 -12°C° 0 mm 4 m/s 608 mmHg 79%
    01:00 -12°C° 0 mm 4 m/s 608 mmHg 78%
    02:00 -12°C° 0 mm 3 m/s 608 mmHg 78%
    03:00 -12°C° 0 mm 3 m/s 607 mmHg 77%
    04:00 -12°C° 0 mm 3 m/s 607 mmHg 77%
    05:00 -12°C° 0 mm 3 m/s 607 mmHg 77%
    06:00 -13°C° 0 mm 3 m/s 607 mmHg 76%
    07:00 -10°C° 0 mm 3 m/s 607 mmHg 73%
    08:00 -9°C° 0 mm 3 m/s 608 mmHg 69%
    09:00 -9°C° 0 mm 4 m/s 608 mmHg 66%
    10:00 -8°C° 0 mm 4 m/s 609 mmHg 63%
    11:00 -7°C° 0 mm 4 m/s 609 mmHg 61%
    12:00 -5°C° 0 mm 4 m/s 609 mmHg 58%
    13:00 -5°C° 0 mm 3 m/s 609 mmHg 59%
    14:00 -6°C° 0 mm 3 m/s 609 mmHg 61%
    15:00 -6°C° 0 mm 3 m/s 608 mmHg 62%
    16:00 -7°C° 0 mm 3 m/s 608 mmHg 67%
    17:00 -8°C° 0 mm 3 m/s 608 mmHg 72%
    18:00 -8°C° 0 mm 2 m/s 607 mmHg 77%
    19:00 -9°C° 0 mm 2 m/s 607 mmHg 78%
    20:00 -9°C° 0 mm 2 m/s 607 mmHg 78%
    21:00 -10°C° 0 mm 2 m/s 607 mmHg 78%
    22:00 -10°C° 0 mm 2 m/s 607 mmHg 78%
    23:00 -10°C° 0 mm 2 m/s 607 mmHg 77%

    Mâine, 23 Februarie, Vineri

    Timp Temperatura Precipitaţii Vânt Presiune Umiditate
    00:00 -12°C° 0 mm 2 m/s 607 mmHg 77%
    01:00 -12°C° 0 mm 2 m/s 607 mmHg 77%
    02:00 -12°C° 0 mm 2 m/s 607 mmHg 76%
    03:00 -12°C° 0 mm 2 m/s 607 mmHg 76%
    04:00 -12°C° 0 mm 2 m/s 606 mmHg 75%
    05:00 -12°C° 0 mm 2 m/s 606 mmHg 74%
    06:00 -12°C° 0 mm 2 m/s 606 mmHg 74%
    07:00 -10°C° 0 mm 2 m/s 607 mmHg 68%
    08:00 -8°C° 0 mm 2 m/s 608 mmHg 63%
    09:00 -6°C° 0 mm 2 m/s 609 mmHg 58%
    10:00 -5°C° 0 mm 2 m/s 609 mmHg 56%
    11:00 -1°C° 0 mm 1 m/s 610 mmHg 53%
    12:00 0°C° 0 mm 1 m/s 610 mmHg 51%
    13:00 0°C° 0 mm 1 m/s 610 mmHg 53%
    14:00 0°C° 0 mm 1 m/s 609 mmHg 54%
    15:00 0°C° 0 mm 1 m/s 609 mmHg 56%
    16:00 -2°C° 0 mm 1 m/s 609 mmHg 65%
    17:00 -4°C° 0 mm 1 m/s 608 mmHg 73%
    18:00 -7°C° 0 mm 0 m/s 607 mmHg 82%
    19:00 -7°C° 0 mm 0 m/s 607 mmHg 81%
    20:00 -8°C° 0 mm 1 m/s 607 mmHg 81%
    21:00 -8°C° 0 mm 1 m/s 607 mmHg 81%
    22:00 -8°C° 0 mm 1 m/s 607 mmHg 80%
    23:00 -9°C° 0 mm 1 m/s 607 mmHg 79%

    Poimâine, 24 Februarie, Sâmbătă

    Timp Temperatura Precipitaţii Vânt Presiune Umiditate
    00:00 -9°C° 0 mm 1 m/s 607 mmHg 78%
    01:00 -9°C° 0 mm 1 m/s 607 mmHg 76%
    02:00 -9°C° 0 mm 1 m/s 607 mmHg 75%
    03:00 -9°C° 0 mm 1 m/s 607 mmHg 73%
    04:00 -9°C° 0 mm 1 m/s 607 mmHg 71%
    05:00 -9°C° 0 mm 1 m/s 607 mmHg 68%
    06:00 -9°C° 0 mm 1 m/s 607 mmHg 66%
    07:00 -7°C° 0 mm 1 m/s 608 mmHg 60%
    08:00 -5°C° 0 mm 0 m/s 609 mmHg 55%
    09:00 -2°C° 0 mm 0 m/s 610 mmHg 49%
    10:00 -1°C° 0 mm 0 m/s 610 mmHg 48%
    11:00 +1°C° 0 mm 1 m/s 611 mmHg 47%
    12:00 +2°C° 0 mm 1 m/s 611 mmHg 47%
    13:00 +2°C° 0 mm 1 m/s 611 mmHg 49%
    14:00 +2°C° 0 mm 1 m/s 611 mmHg 51%
    15:00 +1°C° 0 mm 1 m/s 610 mmHg 53%
    16:00 0°C° 0 mm 1 m/s 610 mmHg 61%
    17:00 -2°C° 0 mm 1 m/s 609 mmHg 69%
    18:00 -5°C° 0 mm 0 m/s 609 mmHg 77%
    19:00 -5°C° 0 mm 0 m/s 609 mmHg 78%
    20:00 -6°C° 0 mm 1 m/s 609 mmHg 80%
    21:00 -6°C° 0 mm 1 m/s 609 mmHg 81%
    22:00 -6°C° 0 mm 1 m/s 609 mmHg 80%
    23:00 -6°C° 0 mm 1 m/s 609 mmHg 80%

    25 Februarie, Duminică

    Timp Temperatura Precipitaţii Vânt Presiune Umiditate
    00:00 -7°C° 0 mm 1 m/s 609 mmHg 80%
    01:00 -7°C° 0 mm 1 m/s 609 mmHg 79%
    02:00 -7°C° 0 mm 1 m/s 609 mmHg 79%
    03:00 -7°C° 0 mm 1 m/s 609 mmHg 78%
    04:00 -7°C° 0 mm 1 m/s 609 mmHg 76%
    05:00 -8°C° 0 mm 2 m/s 609 mmHg 73%
    06:00 -8°C° 0 mm 2 m/s 609 mmHg 71%
    07:00 -6°C° 0 mm 2 m/s 610 mmHg 66%
    08:00 -2°C° 0 mm 1 m/s 611 mmHg 61%
    09:00 0°C° 0 mm 1 m/s 612 mmHg 56%
    10:00 -1°C° 0 mm 2 m/s 612 mmHg 56%
    11:00 +1°C° 0 mm 2 m/s 612 mmHg 56%
    12:00 +2°C° 0 mm 2 m/s 613 mmHg 57%
    13:00 +2°C° 0 mm 2 m/s 612 mmHg 58%
    14:00 +2°C° 0 mm 2 m/s 612 mmHg 60%
    15:00 +1°C° 0 mm 3 m/s 612 mmHg 61%
    16:00 -1°C° 0 mm 3 m/s 611 mmHg 69%
    17:00 -3°C° 0 mm 2 m/s 610 mmHg 76%
    18:00 -5°C° 0 mm 2 m/s 610 mmHg 83%
    19:00 -5°C° 0 mm 2 m/s 610 mmHg 83%
    20:00 -6°C° 0 mm 2 m/s 610 mmHg 82%
    21:00 -7°C° 0 mm 3 m/s 610 mmHg 81%
    22:00 -8°C° 0 mm 3 m/s 610 mmHg 80%
    23:00 -8°C° 0 mm 3 m/s 610 mmHg 78%

    26 Februarie, Luni

    Timp Temperatura Precipitaţii Vânt Presiune Umiditate
    00:00 -8°C° 0 mm 3 m/s 610 mmHg 77%
    01:00 -8°C° 0 mm 3 m/s 609 mmHg 76%
    02:00 -9°C° 0 mm 3 m/s 609 mmHg 75%
    03:00 -9°C° 0 mm 3 m/s 609 mmHg 74%
    04:00 -9°C° 0 mm 3 m/s 609 mmHg 71%
    05:00 -9°C° 0 mm 3 m/s 609 mmHg 68%
    06:00 -9°C° 0 mm 2 m/s 609 mmHg 66%
    07:00 -7°C° 0 mm 2 m/s 610 mmHg 59%
    08:00 -5°C° 0 mm 2 m/s 611 mmHg 52%
    09:00 -3°C° 0 mm 2 m/s 612 mmHg 46%
    10:00 -2°C° 0 mm 2 m/s 612 mmHg 43%
    11:00 -1°C° 0 mm 2 m/s 612 mmHg 41%
    12:00 +2°C° 0 mm 2 m/s 612 mmHg 38%
    13:00 +1°C° 0 mm 2 m/s 612 mmHg 41%
    14:00 +1°C° 0 mm 2 m/s 611 mmHg 43%
    15:00 +1°C° 0 mm 2 m/s 611 mmHg 45%
    16:00 -2°C° 0 mm 2 m/s 610 mmHg 54%
    17:00 -4°C° 0 mm 2 m/s 609 mmHg 63%
    18:00 -4°C° 0 mm 1 m/s 609 mmHg 72%
    19:00 -6°C° 0 mm 1 m/s 609 mmHg 73%
    20:00 -6°C° 0 mm 1 m/s 609 mmHg 74%
    21:00 -7°C° 0 mm 1 m/s 609 mmHg 75%
    22:00 -7°C° 0 mm 1 m/s 609 mmHg 75%
    23:00 -6°C° 0 mm 1 m/s 609 mmHg 75%

    27 Februarie, Marţi

    Timp Temperatura Precipitaţii Vânt Presiune Umiditate
    00:00 -6°C° 0 mm 1 m/s 609 mmHg 75%
    01:00 -7°C° 0 mm 1 m/s 608 mmHg 75%
    02:00 -7°C° 0 mm 1 m/s 608 mmHg 75%
    03:00 -7°C° 0 mm 1 m/s 608 mmHg 75%
    04:00 -7°C° 0 mm 1 m/s 608 mmHg 75%
    05:00 -8°C° 0 mm 1 m/s 607 mmHg 76%
    06:00 -8°C° 0 mm 1 m/s 607 mmHg 76%
    07:00 -7°C° 0 mm 1 m/s 608 mmHg 71%
    08:00 -6°C° 0 mm 1 m/s 609 mmHg 67%
    09:00 -3°C° 0 mm 1 m/s 610 mmHg 62%
    10:00 -3°C° 0,1 mm 1 m/s 610 mmHg 60%
    11:00 -4°C° 0,1 mm 2 m/s 610 mmHg 59%
    12:00 -3°C° 0,1 mm 2 m/s 610 mmHg 57%
    13:00 -3°C° 0,1 mm 2 m/s 610 mmHg 58%
    14:00 -3°C° 0,1 mm 2 m/s 610 mmHg 58%
    15:00 -3°C° 0,1 mm 2 m/s 610 mmHg 59%
    16:00 -2°C° 0,1 mm 1 m/s 610 mmHg 65%
    17:00 -3°C° 0,1 mm 1 m/s 609 mmHg 70%
    18:00 -6°C° 0,1 mm 1 m/s 609 mmHg 76%
    19:00 -6°C° 0 mm 1 m/s 610 mmHg 77%
    20:00 -6°C° 0 mm 1 m/s 610 mmHg 79%
    21:00 -6°C° 0 mm 1 m/s 610 mmHg 80%
    22:00 -6°C° 0 mm 1 m/s 610 mmHg 82%
    23:00 -6°C° 0 mm 1 m/s 610 mmHg 83%
    Arată mai mult